Location: Eschertshofen
(49.3064°N, 11.5756°E)
Time: 03:26:08
(UTC+00:00)

Cosmos 2227 - Pass Details

Date: 18 September 2020
Orbit: 836 x 859 km, 71.0° (Epoch: 18 October)

Event Time Altitude Azimuth Distance (km) Brightness Sun altitude
Rises 17:57:42 0° 199° (SSW) 3,420 7.5 -7.0°
Reaches altitude 10° 18:00:09 10° 197° (SSW) 2,486 6.7 -7.4°
Maximum altitude 18:05:50 71° 115° (ESE) 904 4.2 -8.3°
Drops below altitude 10° 18:11:32 10° 32° (NNE) 2,490 6.5 -9.2°
Sets 18:13:59 0° 30° (NNE) 3,426 7.2 -9.6°
